Other Public Products
Issued by NWS Charleston, SC

Current Version | Previous Version | Text Only | Print | Product List | Glossary Off
Versions: 1 2 3 4 5 6 7 8 9 10 11 12 13 14 15 16 17 18 19 20 21 22 23 24 25 26 27 28 29 30 31 32 33 34 35 36 37 38 39 40 41 42 43 44 45 46 47 48 49 50

000
FPUS82 KCHS 070027
OPUCHS

TEST...KCHS/KSAV Gateway Observations...TEST
National Weather Service Charleston SC
700 PM EST TUE DEC 06 2016

NOTE: "fair" indicates few or no clouds below 12,000 feet with no
significant weather and/or obstructions to visibility.

SCZ050-WAZ558-NCZ071-TXZ119-213-PAZ071-DCZ001-FLZ074-172-MI076-
NYZ176-178-MAZ016-IL014-TNZ027-NJZ106-GAZ044-MD014-070100-
...Gateway Observations for Charleston International...

CITY           SKY/WX    TMP DP  RH WIND       PRES   REMARKS
Chas Airport   PTCLDY    62  57  83 NW12      29.81R
6HR MIN TEMP:  62; 6HR MAX TEMP:  76;

Seattle        PTCLDY    37  25  61 N15       30.23R WCI  28
6HR MIN TEMP:  35; 6HR MAX TEMP:  40;

Charlotte      CLOUDY    45  42  89 W5        29.85R
6HR MIN TEMP:  45; 6HR MAX TEMP:  47; 6HR PCP:  0.10;

Dallas DFW     CLOUDY    48  39  71 N6        30.04S
6HR MIN TEMP:  48; 6HR MAX TEMP:  52;

Dallas Love    CLOUDY    50  39  66 N10G20    30.05R
6HR MIN TEMP:  50; 6HR MAX TEMP:  54;

Philladelphia  RAIN      43  39  87 NE13G23   29.88F FOG
6HR MIN TEMP:  42; 6HR MAX TEMP:  46; 6HR PCP:  0.51;

Wash National  LGT RAIN  45  43  93 N15       29.83F
6HR MIN TEMP:  42; 6HR MAX TEMP:  44; 6HR PCP:  0.85;

Baltimore      LGT RAIN  43  43 100 NE14      29.82S FOG
6HR MIN TEMP:  41; 6HR MAX TEMP:  46; 6HR PCP:  0.64;

Miami          MOCLDY    80  74  81 S10       29.97R
6HR MIN TEMP:  80; 6HR MAX TEMP:  86;

Detroit        CLOUDY    40  39  97 SW8       29.74S FOG     WCI  34
6HR MIN TEMP:  39; 6HR MAX TEMP:  41; 6HR PCP:  0.19;

Newark         RAIN      43  37  79 NE8       29.96R
6HR MIN TEMP:  43; 6HR MAX TEMP:  46; 6HR PCP:  0.09;

Laguardia      LGT RAIN  45  34  65 E9        29.98R
6HR MIN TEMP:  45; 6HR MAX TEMP:  47; 6HR PCP:  0.03;

J F K          LGT RAIN  43  34  70 NE9       29.99R
6HR MIN TEMP:  43; 6HR MAX TEMP:  46; 6HR PCP:  0.04;

Boston Logan   CLOUDY    40  31  70 E7        30.03S WCI  35
6HR MIN TEMP:  39; 6HR MAX TEMP:  44;

Ft. Lauderdale CLOUDY    82  74  76 SW12      29.95R
6HR MIN TEMP:  82; 6HR MAX TEMP:  87; 6HR PCP: TRACE;

Chicago O`Hare CLEAR     31  22  69 W21G26    29.86R WCI  18
6HR MIN TEMP:  31; 6HR MAX TEMP:  39;

Chicago Midway PTCLDY    33  23  66 W15       29.88R WCI  23
6HR MIN TEMP:  33; 6HR MAX TEMP:  40;

Houston Bush   MOCLDY    58  51  78 N8        29.99R
6HR MIN TEMP:  57; 6HR MAX TEMP:  70;

Houston Hobby  PTCLDY    63  50  62 NW5       29.96R
6HR MIN TEMP:  63; 6HR MAX TEMP:  71;

Nashville      CLOUDY    46  41  82 NW8       29.98R
6HR MIN TEMP:  46; 6HR MAX TEMP:  50; 6HR PCP: TRACE;

Atlanta        CLOUDY    58  55  90 NW9       29.87R
6HR MIN TEMP:  55; 6HR MAX TEMP:  64;


$$

GAZ044-118-TXZ119-213-NCZ071-DCZ001-MDZ014-506-PAZ021-071-NJZ106-
NYZ176-178-MAZ106-OHZ011-021-055-MIZ076-KYZ091-ILZ014-INZ047-
MNZ060-070100-
...Gateway Observations for Savannah International...

CITY           SKY/WX    TMP DP  RH WIND       PRES   REMARKS
Savannah Arpt  CLEAR     66  57  72 NW3       29.81R
6HR MIN TEMP:  66; 6HR MAX TEMP:  80;

Atlanta        CLOUDY    58  55  90 NW9       29.87R
6HR MIN TEMP:  55; 6HR MAX TEMP:  64;

Charlotte      CLOUDY    45  42  89 W5        29.85R
6HR MIN TEMP:  45; 6HR MAX TEMP:  47; 6HR PCP:  0.10;

Dallas DFW     CLOUDY    48  39  71 N6        30.04S
6HR MIN TEMP:  48; 6HR MAX TEMP:  52;

Houston Bush   MOCLDY    58  51  78 N8        29.99R
6HR MIN TEMP:  57; 6HR MAX TEMP:  70;

Wash National  LGT RAIN  45  43  93 N15       29.83F
6HR MIN TEMP:  42; 6HR MAX TEMP:  44; 6HR PCP:  0.85;

Wash Dulles    LGT RAIN  39  37  92 N14       29.85S FOG     WCI  31
6HR MIN TEMP:  39; 6HR MAX TEMP:  41; 6HR PCP:  0.83;

Baltimore      LGT RAIN  43  43 100 NE14      29.82S FOG
6HR MIN TEMP:  41; 6HR MAX TEMP:  46; 6HR PCP:  0.64;

Philadelphia   RAIN      43  39  87 NE13G23   29.88F FOG
6HR MIN TEMP:  42; 6HR MAX TEMP:  46; 6HR PCP:  0.51;

Newark         RAIN      43  37  79 NE8       29.96R
6HR MIN TEMP:  43; 6HR MAX TEMP:  46; 6HR PCP:  0.09;

Laguardia      LGT RAIN  45  34  65 E9        29.98R
6HR MIN TEMP:  45; 6HR MAX TEMP:  47; 6HR PCP:  0.03;

J F K          LGT RAIN  43  34  70 NE9       29.99R
6HR MIN TEMP:  43; 6HR MAX TEMP:  46; 6HR PCP:  0.04;

Boston         CLOUDY    40  31  70 E7        30.03S WCI  35
6HR MIN TEMP:  39; 6HR MAX TEMP:  44;

Pittsburg      DRIZZLE   40  39  97 SE7       29.73R FOG     WCI  35
6HR MIN TEMP:  39; 6HR MAX TEMP:  40; 6HR PCP:  0.33;

Akron          CLOUDY    40  38  93 S5        29.71R FOG     WCI  37
6HR MIN TEMP:  38; 6HR MAX TEMP:  40; 6HR PCP:  0.38;

Cleveland      DRIZZLE   40  37  89 W3        29.74S FOG
6HR MIN TEMP:  39; 6HR MAX TEMP:  41; 6HR PCP:  0.40;

Cincinnati     CLOUDY    42  40  92 W9        29.86R
6HR MIN TEMP:  40; 6HR MAX TEMP:  43; 6HR PCP:  0.01;

Columbus         N/A     40  39  95 W13       29.81R WCI  33
Detroit        CLOUDY    40  39  97 SW8       29.74S FOG     WCI  34
6HR MIN TEMP:  39; 6HR MAX TEMP:  41; 6HR PCP:  0.19;

Chicago O`Hare CLEAR     31  22  69 W21G26    29.86R WCI  18
6HR MIN TEMP:  31; 6HR MAX TEMP:  39;

Minneapolis    FLURRIES  22  11  62 W21G31    29.75R WCI   6
6HR MIN TEMP:  22; 6HR MAX TEMP:  24; 6HR PCP: TRACE;

Indianapolis   CLOUDY    37  32  82 W13       29.93R WCI  29
6HR MIN TEMP:  36; 6HR MAX TEMP:  43;


$$




USA.gov is the U.S. government's official web portal to all federal, state and local government web resources and services.